Location: Christianberg
(48.9086°N, 14.0209°E)
Time: 19:45:17
(UTC+00:00)

Meteor 1-28 Rocket - Pass Details

Date: 20 June 2021
Orbit: 502 x 523 km, 97.4° (Epoch: 02 August)

Event Time Altitude Azimuth Distance (km) Brightness Sun altitude
Exits shadow 01:11:00 - 153° (SSE) 2,203 6.1 -12.4°
Reaches altitude 10° 01:12:04 10° 151° (SSE) 1,756 5.6 -12.3°
Maximum altitude 01:15:47 56° 73° (ENE) 629 3.9 -12.0°
Drops below altitude 10° 01:19:32 10° 355° (N) 1,774 6.8 -11.7°
Sets 01:21:40 0° 351° (N) 2,668 7.7 -11.5°
